Regional Weather Roundup
Issued by NWS

Home | Current Version | Previous Version | Graphics & Text | Print | Product List | Glossary Off
Versions: 1 2 3 4 5 6 7 8 9 10 11 12 13 14 15 16 17 18 19 20 21 22 23 24 25 26 27 28 29 30 31 32 33 34 35 36 37 38 39 40 41 42 43 44 45 46 47 48 49 50

000
ASUS43 KLSX 311107
RWRMO

WEATHER SUMMARY FOR MISSOURI
NATIONAL WEATHER SERVICE SPRINGFIELD MO
600 AM CDT THU JUL 31 2014

NOTE: "FAIR" INDICATES FEW OR NO CLOUDS BELOW 12,000 FEET WITH NO
       SIGNIFICANT WEATHER AND/OR OBSTRUCTIONS TO VISIBILITY.
       CURRENT SKY AND/OR WEATHER CONDITIONS ARE NOT AVAILABLE FOR
       CHILLICOTHE AND FARMINGTON.

MOZ001>031-035>038-043-044-053-054-311200-
...NORTHERN AND WESTERN MISSOURI...

CITY           SKY/WX    TMP DP  RH WIND       PRES   REMARKS
KANSAS CTY INT PTCLDY    60  56  86 N5        30.10F
KANSAS C DTWN  CLEAR     62  59  90 CALM      30.10R
LEE`S SUMMIT   PTCLDY    62  59  90 CALM      30.10S
ST JOSEPH      CLOUDY    54  53  97 CALM      30.11S FOG
CHILLICOTHE      N/A     57  54  89 CALM      30.12R
KIRKSVILLE     PTCLDY    54  53  97 CALM      30.11R FOG

$$
MOZ066>068-077>081-088>096-101>105-311200-
...SOUTHWEST MISSOURI...

CITY           SKY/WX    TMP DP  RH WIND       PRES   REMARKS
SPRINGFIELD    CLOUDY    67  64  90 NE3       30.10S
JOPLIN         CLOUDY    65  64  97 NE5       30.09S FOG

$$
MOZ032>034-039>042-045>050-055>058-069>072-311200-
...CENTRAL MISSOURI...

CITY           SKY/WX    TMP DP  RH WIND       PRES   REMARKS
COLUMBIA       CLEAR     60  56  86 NE3       30.09S
JEFFERSON CITY CLEAR     59  57  93 CALM      30.09R
ROLLA          FOG       58  58 100 CALM      30.09R VSB 1/2
SEDALIA        CLEAR     60  57  89 S3        30.10R
WHITEMAN AFB   CLEAR     57  54  88 SW1       30.09S
OSAGE BEACH    CLOUDY    57  54  88 CALM      30.10R VSB 1

$$
MOZ051-052-059>065-311200-
...EAST CENTRAL MISSOURI...

CITY           SKY/WX    TMP DP  RH WIND       PRES   REMARKS
ST LOUIS INTL  PTCLDY    66  59  78 CALM      30.09R
SPIRIT OF STL  PTCLDY    59  57  93 CALM      30.07S
ST CHARLES     PTCLDY    58  57  97 CALM      30.07R

$$
MOZ072>076-082>087-097>100-106>115-311200-
...SOUTH CENTRAL AND SOUTHEAST MISSOURI...

CITY           SKY/WX    TMP DP  RH WIND       PRES   REMARKS
CAPE GIRARDEAU FOG       60  58  92 CALM      30.08S VSB 1/4
FARMINGTON     CLOUDY    57  55  94 CALM      30.12R
POPLAR BLUFF   CLOUDY    67  63  87 CALM      30.07R FOG
WEST PLAINS    CLOUDY    66  63  90 CALM      30.11S

$$



USA.gov is the U.S. government's official web portal to all federal, state and local government web resources and services.